O3B FM12 (40350 NORAD) Tracking and Keplerian Element Data

This shows tracking and keplerian element data for the satellite.

Feedback or suggestion? Click here.




ElementValue
Catalog40350
NameO3B FM12
Epoch Orbit20092
Epoch Day353.29765608
Epoch Year2025
RAAN3.7428
Inclination0.0512
Eccentricity0.0002805
Argument of Perigee259.635
Mean Anonmoly96.5924
Mean Motion5.00115929
Decay Rate-1.5E-07
L11 40350U 14083C 25353.29765608 -.00000015 00000+0 00000+0 0 9994
L22 40350 0.0512 3.7428 0002805 259.6350 96.5924 5.00115929200921



Live tracking and technical data element details for O3B FM12 (NORAD 40350). O3B FM12 can be tracked NOW for your location showing map with azimuth and elevation plus other details from your city location.







IsCatalogInMostPopularTable: catalog: 40350, numindb: 535
Update: records affected: 1



GetName: 40350 O3B FM12

Hit Count: updated at: Sat, 07 Mar 2026 05:51:39 GMT